N1DNE Weather Reports


Display with metric or nautical units.
time (UTC)temp
F
wind
direction
speed
MPH
gust
MPH
rain 1hr
in
rain 24hr
in
rain mn
in
humidity
%
barometer
mb
20260506035957 62 175 1.0 6.0 0.00 0.00 0.00 76 1008.2
20260506035928 62 175 1.0 6.0 0.00 0.00 0.00 76 1008.2
20260506033956 62 175 0.0 3.0 0.00 0.00 0.00 76 1008.2
20260506032958 62 302 0.0 3.0 0.00 0.00 0.00 75 1008.2
20260506031958 62 165 1.0 7.0 0.00 0.00 0.00 75 1008.1
20260506030957 62 188 1.0 3.0 0.00 0.00 0.00 74 1008.2
20260506025959 62 188 0.0 2.0 0.00 0.00 0.00 74 1008.2
20260506024953 63 188 0.0 3.0 0.00 0.00 0.00 74 1008.1
20260506023951 63 188 0.0 4.0 0.00 0.00 0.00 73 1008.1
20260506023439 63 188 0.0 5.0 0.00 0.00 0.00 73 1008.0
20260506021950 63 188 0.0 4.0 0.00 0.00 0.00 72 1008.0
20260506020949 63 188 1.0 3.0 0.00 0.00 0.00 72 1008.0
20260506015949 63 188 1.0 5.0 0.00 0.00 0.00 72 1008.0
20260506014947 63 193 0.0 2.0 0.00 0.00 0.00 72 1008.0
20260506013948 64 233 0.0 2.0 0.00 0.00 0.00 71 1007.9
20260506012947 64 217 1.0 3.0 0.00 0.00 0.00 71 1007.7
20260506011941 64 181 1.0 3.0 0.00 0.00 0.00 71 1007.7
20260506010942 64 181 0.0 3.0 0.00 0.00 0.00 71 1007.4
20260506005940 64 181 0.0 1.0 0.00 0.00 0.00 70 1007.4
20260506004940 65 181 0.0 2.0 0.00 0.00 0.00 70 1007.3
20260506003941 65 181 1.0 3.0 0.00 0.00 0.00 69 1007.1
20260506002940 66 181 0.0 5.0 0.00 0.00 0.00 69 1007.0
20260506001940 66 273 0.0 1.0 0.00 0.00 0.00 68 1006.8
20260506000940 67 273 0.0 3.0 0.00 0.00 0.00 67 1006.6
20260505235943 67 273 0.0 1.0 0.00 0.00 0.00 66 1006.5
20260505234939 68 273 0.0 3.0 0.00 0.00 0.00 66 1006.4
20260505233940 69 273 1.0 5.0 0.00 0.00 0.00 64 1006.3
20260505232939 69 190 1.0 5.0 0.00 0.00 0.00 63 1006.2
20260505231940 69 211 2.0 6.0 0.00 0.00 0.00 62 1006.1
20260505230938 70 267 2.0 5.0 0.00 0.00 0.00 62 1006.0
20260505225939 70 171 2.0 7.0 0.00 0.00 0.00 62 1005.9
20260505224937 71 90 3.0 10.0 0.00 0.00 0.00 61 1005.8
20260505223938 71 166 2.0 8.0 0.00 0.00 0.00 61 1005.5
20260505222936 71 180 2.0 9.0 0.00 0.00 0.00 61 1005.5
20260505221938 71 173 2.0 9.0 0.00 0.00 0.00 61 1005.2
20260505220936 71 171 2.0 10.0 0.00 0.00 0.00 61 1005.5
20260505220425 72 183 3.0 10.0 0.00 0.00 0.00 61 1005.8
20260505214936 72 229 2.0 9.0 0.00 0.00 0.00 59 1005.6
20260505214419 73 243 2.0 10.0 0.00 0.00 0.00 60 1005.7
20260505212937 73 173 2.0 10.0 0.00 0.00 0.00 59 1005.5
20260505211936 74 185 1.0 8.0 0.00 0.00 0.00 59 1005.6
20260505210937 74 190 2.0 5.0 0.00 0.00 0.00 58 1005.4
20260505205934 75 174 3.0 11.0 0.00 0.00 0.00 57 1005.5
20260505204933 75 242 2.0 11.0 0.00 0.00 0.00 56 1005.3
20260505203934 76 194 3.0 11.0 0.00 0.00 0.00 55 1005.3
20260505202934 77 180 2.0 6.0 0.00 0.00 0.00 54 1005.3
20260505201934 77 229 3.0 9.0 0.00 0.00 0.00 53 1005.3
20260505200934 77 175 2.0 7.0 0.00 0.00 0.00 54 1005.3
20260505195935 77 275 3.0 9.0 0.00 0.00 0.00 54 1005.5
20260505194934 78 171 2.0 14.0 0.00 0.00 0.00 54 1005.5
20260505194414 78 257 2.0 12.0 0.00 0.00 0.00 52 1005.3
20260505193420 78 182 3.0 15.0 0.00 0.00 0.00 54 1005.4
20260505191935 79 263 2.0 11.0 0.00 0.00 0.00 53 1005.6
20260505190930 79 55 2.0 10.0 0.00 0.00 0.00 53 1005.5
20260505185931 79 191 2.0 6.0 0.00 0.00 0.00 53 1005.7
20260505185412 79 188 2.0 10.0 0.00 0.00 0.00 53 1005.6
20260505183932 79 165 2.0 7.0 0.00 0.00 0.00 52 1005.9
20260505182931 79 140 2.0 10.0 0.00 0.00 0.00 53 1005.9
20260505181930 79 178 2.0 6.0 0.00 0.00 0.00 53 1006.0
20260505180930 79 94 2.0 7.0 0.00 0.00 0.00 55 1005.9
20260505175930 79 191 3.0 8.0 0.00 0.00 0.00 54 1005.9
20260505174928 79 173 2.0 9.0 0.00 0.00 0.00 52 1005.9
20260505173927 78 184 2.0 7.0 0.00 0.00 0.00 54 1006.1
20260505173402 78 166 2.0 9.0 0.00 0.00 0.00 55 1006.1
20260505171928 78 189 1.0 7.0 0.00 0.00 0.00 56 1006.2
20260505170927 77 175 2.0 8.0 0.00 0.00 0.00 57 1006.4
20260505165929 77 180 2.0 8.0 0.00 0.00 0.00 55 1006.6
20260505164928 77 227 2.0 8.0 0.00 0.00 0.00 56 1006.6
20260505163930 76 184 2.0 9.0 0.00 0.00 0.00 56 1006.7
20260505162927 76 173 1.0 6.0 0.00 0.00 0.00 58 1007.0
20260505162359 75 180 3.0 9.0 0.00 0.00 0.00 59 1007.2
20260505160928 75 274 3.0 7.0 0.00 0.00 0.00 59 1007.3
20260505152919 72 185 2.0 5.0 0.00 0.00 0.00 65 1007.9
20260505151920 71 193 2.0 8.0 0.00 0.00 0.00 64 1008.1
20260505150920 70 212 2.0 7.0 0.00 0.00 0.00 66 1008.2
20260505124911 58 178 0.0 3.0 0.00 0.00 0.00 82 1008.7
20260505123913 58 178 0.0 3.0 0.00 0.00 0.00 83 1008.6
20260505122911 58 178 0.0 3.0 0.00 0.00 0.00 83 1008.5
20260505121911 58 178 1.0 3.0 0.00 0.00 0.00 83 1008.6
20260505120913 57 178 1.0 3.0 0.00 0.00 0.00 86 1008.6
20260505115910 56 178 1.0 5.0 0.00 0.00 0.00 88 1008.7
20260505115355 54 178 0.0 2.0 0.00 0.00 0.00 92 1008.8
20260505113909 52 178 0.0 2.0 0.00 0.00 0.00 94 1008.7
20260505112909 51 178 0.0 1.0 0.00 0.00 0.00 95 1008.7
20260505111909 49 178 0.0 2.0 0.00 0.00 0.00 94 1008.6
20260505110910 48 178 0.0 1.0 0.00 0.00 0.00 94 1008.7
20260505101907 47 178 0.0 2.0 0.00 0.00 0.00 93 1008.3
20260505100906 47 178 0.0 2.0 0.00 0.00 0.00 93 1008.1
20260505095909 47 178 0.0 1.0 0.00 0.00 0.00 92 1008.0
20260505095353 47 178 0.0 0.0 0.00 0.00 0.00 92 1008.0
20260505094346 47 178 0.0 0.0 0.00 0.00 0.00 92 1007.9
20260505092907 47 178 0.0 2.0 0.00 0.00 0.00 92 1007.9
20260505092342 47 178 0.0 2.0 0.00 0.00 0.00 92 1007.9
20260505090908 48 178 0.0 0.0 0.00 0.00 0.00 91 1008.0
20260505085909 48 178 0.0 1.0 0.00 0.00 0.00 91 1007.9
20260505084905 48 178 0.0 2.0 0.00 0.00 0.00 91 1007.9
20260505083904 49 178 0.0 0.0 0.00 0.00 0.00 91 1007.9
20260505083348 49 178 0.0 1.0 0.00 0.00 0.00 90 1008.0
20260505081903 49 178 0.0 1.0 0.00 0.00 0.00 91 1008.0
20260505080904 49 178 0.0 1.0 0.00 0.00 0.00 91 1008.0
20260505080342 49 178 1.0 2.0 0.00 0.00 0.00 91 1008.1
20260505074902 49 178 0.0 2.0 0.00 0.00 0.00 91 1008.1
20260505073902 49 178 1.0 2.0 0.00 0.00 0.00 91 1008.2
20260505072903 49 178 1.0 3.0 0.00 0.00 0.00 91 1008.0
20260505071903 49 178 0.0 2.0 0.00 0.00 0.00 90 1008.1
20260505070906 49 178 0.0 2.0 0.00 0.00 0.00 90 1008.1
20260505065901 49 178 0.0 2.0 0.00 0.00 0.00 89 1008.1
20260505064900 49 178 1.0 2.0 0.00 0.00 0.00 89 1008.2
20260505063900 49 178 1.0 2.0 0.00 0.00 0.00 89 1008.2
20260505062856 49 178 1.0 2.0 0.00 0.00 0.00 88 1008.2
20260505061854 49 178 0.0 2.0 0.00 0.00 0.00 88 1008.3
20260505060855 49 178 1.0 2.0 0.00 0.00 0.00 88 1008.3
20260505055855 50 178 1.0 2.0 0.00 0.00 0.00 87 1008.4
20260505054855 50 178 1.0 2.0 0.00 0.00 0.00 87 1008.5
20260505054333 50 178 1.0 2.0 0.00 0.00 0.00 87 1008.5
20260505052855 50 178 0.0 2.0 0.00 0.00 0.00 86 1008.6
20260505051854 50 178 1.0 2.0 0.00 0.00 0.00 86 1008.6
20260505051339 50 178 1.0 2.0 0.00 0.00 0.00 86 1008.6
20260505040848 52 178 0.0 0.0 0.00 0.00 0.00 83 1008.9